Location: Unnamed
(51.5169°N, 0.1311°W)
Time: 06:12:12
(UTC+01:00)

Vanguard 1 - Pass Details

Date: 13 August 2024
Orbit: 649 x 3825 km, 34.2° (Epoch: 16 September)

Event Time Altitude Azimuth Distance (km) Brightness Sun altitude
Rises 02:25:44 0° 258° (WSW) 5,156 13.4 -21.7°
Reaches altitude 10° 02:28:54 10° 250° (WSW) 4,531 13.1 -21.5°
Maximum altitude 02:40:54 38° 189° (S) 3,893 12.5 -20.7°
Drops below altitude 10° 02:59:11 10° 132° (SE) 6,795 14.2 -19.4°
Sets 03:05:26 0° 125° (SE) 7,948 14.6 -19.0°
